Regional Weather Roundup
Issued by NWS Little Rock, AR

Home | Current Version | Previous Version | Graphics & Text | Print | Product List | Glossary On
Versions: 1 2 3 4 5 6 7 8 9 10 11 12 13 14 15 16 17 18 19 20 21 22 23 24 25 26 27 28 29 30 31 32 33 34 35 36 37 38 39 40 41 42 43 44 45 46 47 48 49 50
217
ASUS44 KLZK 290005
RWRLZK

WEATHER ROUNDUP FOR ARKANSAS
NATIONAL WEATHER SERVICE LITTLE ROCK AR
700 PM CDT SUN MAY 28 2017

NOTE: "FAIR" INDICATES FEW OR NO CLOUDS BELOW 12,000 FEET WITH NO
SIGNIFICANT WEATHER AND/OR OBSTRUCTIONS TO VISIBILITY.

ARZ001-003-010-029-290100-
NORTHWEST ARKANSAS

CITY           SKY/WX    TMP DP  RH WIND       PRES   REMARKS
FAYETTEVILLE   MOSUNNY   74  57  55 N10       29.97F
6HR MIN TEMP:  73; 6HR MAX TEMP:  78;

FORT SMITH     PTSUNNY   82  55  39 N9        29.92F
6HR MIN TEMP:  79; 6HR MAX TEMP:  85;

HARRISON       MOSUNNY   74  55  51 NW5       29.97F
6HR MIN TEMP:  74; 6HR MAX TEMP:  78;

BENTONVILLE    SUNNY     75  54  46 N5        29.98F
6HR MIN TEMP:  73; 6HR MAX TEMP:  77;

ROGERS         SUNNY     75  57  53 N3        29.98F
6HR MIN TEMP:  73; 6HR MAX TEMP:  77; 6HR PCP:  0.02;

SILOAM SPGS    SUNNY     75  54  46 N8        29.97F
6HR MIN TEMP:  75; 6HR MAX TEMP:  77;

HIGHFILL       SUNNY     77  57  50 NW6       29.98F
6HR MIN TEMP:  76; 6HR MAX TEMP:  79;

SPRINGDALE     MOSUNNY   75  55  50 NW9       29.98F
$$

ARZ004-005-016-290100-
NORTH CENTRAL ARKANSAS

CITY           SKY/WX    TMP DP  RH WIND       PRES   REMARKS
BATESVILLE     SUNNY     79  63  57 NW5       29.92F
6HR MIN TEMP:  73; 6HR MAX TEMP:  81;

FLIPPIN        SUNNY     77  55  47 NW5       29.93S
6HR MIN TEMP:  75; 6HR MAX TEMP:  81;

MTN HOME       SUNNY     76  58  53 N5        29.94
6HR MIN TEMP:  74; 6HR MAX TEMP:  79;

$$

ARZ040-041-290100-
WEST CENTRAL ARKANSAS

CITY           SKY/WX    TMP DP  RH WIND       PRES   REMARKS
MENA           CLOUDY    77  70  78 CALM      29.93F
MOUNT IDA      CLOUDY    74  71  91 CALM      29.89F
6HR MIN TEMP:  74; 6HR MAX TEMP:  79;

$$

ARZ009-017-025-026-028-290100-
NORTHEAST ARKANSAS

CITY           SKY/WX    TMP DP  RH WIND       PRES   REMARKS
JONESBORO      MOSUNNY   80  66  62 NW6       29.89S
6HR MIN TEMP:  73; 6HR MAX TEMP:  82;

NEWPORT        SUNNY     80  67  64 NW13      29.90F
6HR MIN TEMP:  74; 6HR MAX TEMP:  81;

WALNUT RIDGE   SUNNY     81  64  57 NW13      29.90S
6HR MIN TEMP:  72; 6HR MAX TEMP:  81;

BLYTHEVILLE    SUNNY     77  68  73 VRB6      29.90F
6HR MIN TEMP:  73; 6HR MAX TEMP:  78;

$$

ARZ022-023-033-042-044-290100-
CENTRAL ARKANSAS

CITY           SKY/WX    TMP DP  RH WIND       PRES   REMARKS
LITTLE ROCK    CLOUDY    77  69  76 NW6       29.90F
6HR MIN TEMP:  77; 6HR MAX TEMP:  82;

N LITTLE ROCK    N/A     77  70  79 CALM      29.90F
6HR MIN TEMP:  77; 6HR MAX TEMP:  80;

JACKSONVILLE   CLOUDY    79  71  76 W3        29.90F
6HR MIN TEMP:  79; 6HR MAX TEMP:  82;

CONWAY           N/A     79  72  78 W5        29.88F
SEARCY         CLOUDY    79  72  79 CALM      29.92F
6HR MIN TEMP:  78; 6HR MAX TEMP:  82;

HOT SPRINGS    CLOUDY    76  70  82 CALM      29.91F
6HR MIN TEMP:  76; 6HR MAX TEMP:  81;

RUSSELLVILLE   PTSUNNY   82  64  54 NW6       29.90F
6HR MIN TEMP:  77; 6HR MAX TEMP:  83;

CLINTON        FAIR      79  63  57 CALM      29.92F
$$

ARZ036-290100-
EAST ARKANSAS

CITY           SKY/WX    TMP DP  RH WIND       PRES   REMARKS
WEST MEMPHIS   MOSUNNY   78  70  76 CALM      29.90F
6HR MIN TEMP:  73; 6HR MAX TEMP:  79;

$$

ARZ050-053-066-070-073-290100-
SOUTHWEST ARKANSAS

CITY           SKY/WX    TMP DP  RH WIND       PRES   REMARKS
ARKADELPHIA    CLOUDY    77  72  84 CALM      29.91F
6HR MIN TEMP:  76; 6HR MAX TEMP:  81;

CAMDEN         LGT RAIN  73  68  83 NW3       29.91F
TEXARKANA      TSTM      73  71  93 N5        29.91R
6HR MIN TEMP:  72; 6HR MAX TEMP:  79; 6HR PCP: TRACE;

EL DORADO      LGT RAIN  75  72  90 CALM      29.93R
6HR MIN TEMP:  75; 6HR MAX TEMP:  82; 6HR PCP: TRACE;

DE QUEEN       CLOUDY    73  71  93 S5        29.90F
6HR MIN TEMP:  72; 6HR MAX TEMP:  78;

$$

ARZ056-057-069-290100-
SOUTHEAST ARKANSAS

CITY           SKY/WX    TMP DP  RH WIND       PRES   REMARKS
PINE BLUFF     CLOUDY    78  71  79 S3        29.91F
6HR MIN TEMP:  76; 6HR MAX TEMP:  82;

STUTTGART      CLOUDY    79  61  53 NW5       29.92F
6HR MIN TEMP:  77; 6HR MAX TEMP:  82;

MONTICELLO     CLOUDY    78  72  81 CALM      29.93S
6HR MIN TEMP:  74; 6HR MAX TEMP:  83;


$$






USA.gov is the U.S. government's official web portal to all federal, state and local government web resources and services.